Marshfield, WI

1:21 PM CDT on June 25, 2017 (GMT -0500)
Marshfield Municipal

Weather History for KMFI - February, 2012

Change the Weather History Date:

Thursday, February 9, 2012

  Actual Average Record
Temperature  
Mean Temperature 22 °F -  
Max Temperature 33 °F 26 °F 44 °F (1966)
Min Temperature 12 °F 2 °F -32 °F (1933)
Degree Days  
Heating Degree Days 42    
Moisture  
Dew Point 12 °F    
Average Humidity 63    
Maximum Humidity 78    
Minimum Humidity 43    
Precipitation  
Precipitation 0.00 in - - ()
Sea Level Pressure  
Sea Level Pressure 30.06 in    
Wind  
Wind Speed 8 mph (WSW)    
Max Wind Speed 16 mph    
Max Gust Speed 22 mph    
Visibility 10 miles    
Events      
Averages and records for this station are not official NWS values.
T = Trace of Precipitation, MM = Missing Value Source: NWS Daily Summary

Daily Weather History Graph

Daily Weather History Graph

Search for Another Location

Airport or City:

Trip Planner

Search our weather history database for the weather conditions in past years. The results will help you decide how hot, cold, wet, or windy it might be!

Date:

Astronomy

Feb. 09, 2012 Rise Set
Actual Time 7:10 AM CST 5:20 PM CST
Civil Twilight 6:39 AM CST 5:50 PM CST
Nautical Twilight 6:05 AM CST 6:25 PM CST
Astronomical Twilight 5:31 AM CST 6:59 PM CST
Moon 7:57 PM CST (2/9) 7:39 AM CST (2/9)
Length of Visible Light 11h 10m
Length of Day
10h 10m
Waning Gibbous, 96% of the Moon is Illuminated
Feb 9
Waning Gibbous
Feb 14
Last Quarter
Feb 21
New
Feb 29
First Quarter
Mar 8
Full

Hourly Weather History & Observations

Time (CST) Temp. Windchill Dew Point Humidity Pressure Visibility Wind Dir Wind Speed Gust Speed Precip Events Conditions
12:54 AM 17.1 °F 7.6 °F 5.0 °F 59% 30.24 in 10.0 mi WSW 6.9 mph - N/A   Clear
1:54 AM 16.0 °F 6.3 °F 5.0 °F 62% 30.22 in 10.0 mi WSW 6.9 mph - N/A   Clear
2:54 AM 16.0 °F 6.3 °F 5.0 °F 62% 30.20 in 10.0 mi West 6.9 mph - N/A   Clear
3:54 AM 15.1 °F 7.7 °F 3.9 °F 61% 30.19 in 10.0 mi West 4.6 mph - N/A   Clear
4:54 AM 15.1 °F 6.4 °F 5.0 °F 64% 30.18 in 10.0 mi WSW 5.8 mph - N/A   Clear
5:54 AM 12.0 °F 4.1 °F 3.9 °F 70% 30.17 in 10.0 mi SW 4.6 mph - N/A   Clear
6:54 AM 12.0 °F 5.9 °F 3.9 °F 70% 30.17 in 10.0 mi SW 3.5 mph - N/A   Clear
7:54 AM 16.0 °F 6.3 °F 6.1 °F 65% 30.16 in 10.0 mi West 6.9 mph - N/A   Clear
8:54 AM 19.9 °F 11.1 °F 9.0 °F 62% 30.15 in 10.0 mi WSW 6.9 mph - N/A   Clear
9:54 AM 23.0 °F 11.7 °F 10.9 °F 60% 30.14 in 10.0 mi West 11.5 mph - N/A   Clear
10:54 AM 26.1 °F 15.6 °F 12.9 °F 58% 30.12 in 10.0 mi WSW 11.5 mph 18.4 mph N/A   Clear
11:54 AM 28.9 °F 19.8 °F 14.0 °F 54% 30.09 in 10.0 mi WSW 10.4 mph - N/A   Clear
12:54 PM 32.0 °F 23.0 °F 14.0 °F 48% 30.05 in 10.0 mi WSW 11.5 mph 17.3 mph N/A   Clear
1:54 PM 32.0 °F 22.1 °F 12.0 °F 44% 30.02 in 10.0 mi WSW 13.8 mph 19.6 mph N/A   Clear
2:54 PM 33.1 °F 22.6 °F 12.9 °F 43% 30.00 in 10.0 mi SW 16.1 mph - N/A   Clear
3:54 PM 32.0 °F 21.6 °F 12.9 °F 45% 29.98 in 10.0 mi WSW 15.0 mph 21.9 mph N/A   Clear
4:54 PM 30.9 °F 23.5 °F 15.1 °F 52% 29.98 in 10.0 mi SW 8.1 mph 16.1 mph N/A   Clear
5:54 PM 28.0 °F 17.5 °F 16.0 °F 61% 29.99 in 10.0 mi SW 12.7 mph 20.7 mph N/A   Clear
6:54 PM 26.1 °F 15.0 °F 16.0 °F 66% 30.01 in 10.0 mi WSW 12.7 mph 20.7 mph N/A   Clear
7:31 PM 24.8 °F 14.0 °F 17.6 °F 74% 29.93 in 10.0 mi SW 11.5 mph - N/A   Mostly Cloudy
7:54 PM 25.0 °F 16.3 °F 17.1 °F 72% 30.00 in 10.0 mi SW 8.1 mph 16.1 mph N/A   Mostly Cloudy
8:54 PM 26.1 °F 15.6 °F 19.0 °F 75% 29.99 in 10.0 mi SW 11.5 mph - N/A   Overcast
9:29 PM 26.6 °F 16.8 °F 19.4 °F 74% 29.91 in 10.0 mi SSW 10.4 mph - N/A   Overcast
9:54 PM 26.1 °F 16.8 °F 19.0 °F 75% 29.96 in 10.0 mi SSW 9.2 mph - N/A   Overcast
10:54 PM 25.0 °F 16.3 °F 19.0 °F 78% 29.94 in 9.0 mi SSW 8.1 mph - N/A   Mostly Cloudy
11:54 PM 25.0 °F 17.1 °F 19.0 °F 78% 29.93 in 9.0 mi SSW 6.9 mph - N/A   Overcast